Location: Chimay
(50.0486°N, 4.3171°E)
Time: 06:34:39
(UTC+00:00)

Cosmos 2016 Rocket - Pass Details

Date: 08 August 2020
Orbit: 946 x 1001 km, 83.0° (Epoch: 23 September)

Event Time Altitude Azimuth Distance (km) Brightness Sun altitude
Exits shadow 22:39:55 41° 187° (S) 1,402 4.4 -22.5°
Maximum altitude 22:42:20 89° 98° (E) 1,004 4.0 -22.6°
Drops below altitude 10° 22:48:46 10° 10° (N) 2,784 7.3 -22.9°
Sets 22:51:19 0° 10° (N) 3,739 8.1 -23.0°
